| time (UTC) | temp F | wind direction | speed knots | gust knots | rain 1hr in | rain 24hr in | rain mn in | humidity % | barometer mb |
| 20260509224042 | 70 | 208 | 0.0 | 0.0 | 0.00 | 0.00 | 0.00 | 43 | 1005.7 |
| 20260509223041 | 71 | 208 | 0.0 | 0.0 | 0.00 | 0.00 | 0.00 | 47 | 1005.8 |
| 20260509222542 | 71 | 208 | 0.0 | 0.0 | 0.00 | 0.00 | 0.00 | 43 | 1005.8 |
| 20260509222042 | 70 | 208 | 0.0 | 0.0 | 0.00 | 0.00 | 0.00 | 46 | 1005.9 |
| 20260509221541 | 70 | 208 | 0.0 | 0.0 | 0.00 | 0.00 | 0.00 | 45 | 1005.8 |
| 20260509221041 | 71 | 208 | 0.0 | 0.0 | 0.00 | 0.00 | 0.00 | 44 | 1005.8 |
| 20260509220542 | 71 | 208 | 0.0 | 0.0 | 0.00 | 0.00 | 0.00 | 42 | 1005.8 |
| 20260509215541 | 71 | 208 | 0.0 | 0.0 | 0.00 | 0.00 | 0.00 | 39 | 1005.8 |
| 20260509215042 | 71 | 208 | 0.0 | 0.0 | 0.00 | 0.00 | 0.00 | 41 | 1005.8 |
| 20260509214543 | 71 | 208 | 0.0 | 0.0 | 0.00 | 0.00 | 0.00 | 41 | 1005.7 |
| 20260509214041 | 71 | 208 | 0.0 | 0.0 | 0.00 | 0.00 | 0.00 | 39 | 1005.7 |
| 20260509213541 | 71 | 208 | 0.0 | 0.0 | 0.00 | 0.00 | 0.00 | 39 | 1005.7 |
| 20260509213042 | 71 | 208 | 0.0 | 0.0 | 0.00 | 0.00 | 0.00 | 40 | 1005.7 |
| 20260509212541 | 72 | 208 | 0.0 | 0.0 | 0.00 | 0.00 | 0.00 | 39 | 1005.7 |
| 20260509212042 | 72 | 208 | 0.0 | 0.0 | 0.00 | 0.00 | 0.00 | 40 | 1005.7 |
| 20260509211542 | 72 | 208 | 0.0 | 0.0 | 0.00 | 0.00 | 0.00 | 38 | 1005.7 |
| 20260509211042 | 72 | 208 | 0.0 | 0.9 | 0.00 | 0.00 | 0.00 | 41 | 1005.6 |
| 20260509210042 | 72 | 200 | 0.0 | 0.0 | 0.00 | 0.00 | 0.00 | 40 | 1005.6 |
| 20260509205541 | 72 | 201 | 0.0 | 0.0 | 0.00 | 0.00 | 0.00 | 40 | 1005.5 |
| 20260509205041 | 71 | 199 | 0.0 | 0.0 | 0.00 | 0.00 | 0.00 | 40 | 1005.6 |
| 20260509204041 | 71 | 199 | 0.0 | 1.7 | 0.00 | 0.00 | 0.00 | 40 | 1005.5 |
| 20260509203543 | 71 | 221 | 0.0 | 0.0 | 0.00 | 0.00 | 0.00 | 40 | 1005.5 |
| 20260509203041 | 70 | 221 | 0.0 | 0.0 | 0.00 | 0.00 | 0.00 | 40 | 1005.5 |
| 20260509202541 | 70 | 221 | 0.0 | 0.0 | 0.00 | 0.00 | 0.00 | 41 | 1005.5 |
| 20260509202041 | 70 | 221 | 0.0 | 0.0 | 0.00 | 0.00 | 0.00 | 40 | 1005.6 |
| 20260509201541 | 71 | 221 | 0.0 | 0.0 | 0.00 | 0.00 | 0.00 | 41 | 1005.6 |
| 20260509201041 | 71 | 221 | 0.0 | 0.0 | 0.00 | 0.00 | 0.00 | 37 | 1005.6 |
| 20260509200541 | 71 | 223 | 0.0 | 0.0 | 0.00 | 0.00 | 0.00 | 40 | 1005.5 |
| 20260509200041 | 71 | 222 | 0.0 | 0.0 | 0.00 | 0.00 | 0.00 | 40 | 1005.7 |
| 20260509195542 | 71 | 234 | 0.0 | 0.0 | 0.00 | 0.00 | 0.00 | 39 | 1005.8 |
| 20260509195041 | 72 | 234 | 0.0 | 0.0 | 0.00 | 0.00 | 0.00 | 39 | 1005.8 |
| 20260509194542 | 72 | 234 | 0.0 | 0.0 | 0.00 | 0.00 | 0.00 | 35 | 1005.8 |
| 20260509193543 | 71 | 212 | 0.0 | 3.5 | 0.00 | 0.00 | 0.00 | 39 | 1006.0 |
| 20260509193041 | 71 | 227 | 0.9 | 5.2 | 0.00 | 0.00 | 0.00 | 38 | 1005.9 |
| 20260509192542 | 71 | 153 | 0.0 | 4.3 | 0.00 | 0.00 | 0.00 | 39 | 1005.9 |
| 20260509192043 | 70 | 140 | 0.0 | 0.9 | 0.00 | 0.00 | 0.00 | 38 | 1005.8 |
| 20260509191542 | 70 | 140 | 0.0 | 4.3 | 0.00 | 0.00 | 0.00 | 39 | 1005.9 |
| 20260509190541 | 70 | 116 | 0.0 | 5.2 | 0.00 | 0.00 | 0.00 | 39 | 1006.0 |
| 20260509185041 | 69 | 111 | 0.0 | 3.5 | 0.00 | 0.00 | 0.00 | 39 | 1006.2 |
| 20260509184543 | 69 | 134 | 0.9 | 6.1 | 0.00 | 0.00 | 0.00 | 39 | 1006.3 |
| 20260509184041 | 69 | 131 | 0.9 | 6.1 | 0.00 | 0.00 | 0.00 | 39 | 1006.5 |
| 20260509183542 | 68 | 192 | 0.0 | 0.0 | 0.00 | 0.00 | 0.00 | 41 | 1006.5 |
| 20260509183042 | 68 | 192 | 0.0 | 0.0 | 0.00 | 0.00 | 0.00 | 42 | 1006.6 |
| 20260509182042 | 69 | 131 | 0.9 | 7.8 | 0.00 | 0.00 | 0.00 | 40 | 1006.7 |
| 20260509181542 | 69 | 109 | 0.0 | 2.6 | 0.00 | 0.00 | 0.00 | 40 | 1006.9 |
| 20260509181041 | 69 | 107 | 0.9 | 5.2 | 0.00 | 0.00 | 0.00 | 40 | 1006.9 |
| 20260509180042 | 68 | 93 | 0.0 | 4.3 | 0.00 | 0.00 | 0.00 | 39 | 1006.9 |
| 20260509175541 | 68 | 144 | 0.9 | 7.0 | 0.00 | 0.00 | 0.00 | 40 | 1007.1 |
| 20260509175041 | 68 | 104 | 0.9 | 7.8 | 0.00 | 0.00 | 0.00 | 39 | 1007.1 |
| 20260509174541 | 68 | 89 | 0.9 | 7.8 | 0.00 | 0.00 | 0.00 | 38 | 1007.2 |
| 20260509174042 | 68 | 92 | 0.0 | 3.5 | 0.00 | 0.00 | 0.00 | 40 | 1007.3 |
| 20260509173542 | 67 | 43 | 0.0 | 6.1 | 0.00 | 0.00 | 0.00 | 40 | 1007.4 |
| 20260509173041 | 67 | 92 | 0.0 | 6.1 | 0.00 | 0.00 | 0.00 | 39 | 1007.5 |
| 20260509172541 | 66 | 148 | 0.0 | 1.7 | 0.00 | 0.00 | 0.00 | 42 | 1007.5 |
| 20260509171541 | 66 | 129 | 0.0 | 2.6 | 0.00 | 0.00 | 0.00 | 40 | 1007.7 |
| 20260509170542 | 67 | 117 | 0.0 | 0.0 | 0.00 | 0.00 | 0.00 | 41 | 1007.9 |
| 20260509170041 | 67 | 117 | 0.0 | 0.0 | 0.00 | 0.00 | 0.00 | 40 | 1008.0 |
| 20260509165541 | 67 | 116 | 0.0 | 0.0 | 0.00 | 0.00 | 0.00 | 40 | 1008.0 |
| 20260509165041 | 67 | 116 | 0.0 | 3.5 | 0.00 | 0.00 | 0.00 | 40 | 1008.1 |
| 20260509164541 | 67 | 103 | 0.0 | 3.5 | 0.00 | 0.00 | 0.00 | 38 | 1008.2 |
| 20260509164041 | 68 | 82 | 0.0 | 5.2 | 0.00 | 0.00 | 0.00 | 38 | 1008.0 |
| 20260509163542 | 69 | 111 | 0.0 | 2.6 | 0.00 | 0.00 | 0.00 | 35 | 1008.0 |
| 20260509163041 | 70 | 5 | 0.0 | 2.6 | 0.00 | 0.00 | 0.00 | 37 | 1007.8 |
| 20260509162541 | 70 | 34 | 0.0 | 0.0 | 0.00 | 0.00 | 0.00 | 33 | 1007.8 |
| 20260509161541 | 71 | 34 | 0.0 | 0.0 | 0.00 | 0.00 | 0.00 | 33 | 1007.7 |
| 20260509161041 | 71 | 32 | 0.0 | 1.7 | 0.00 | 0.00 | 0.00 | 35 | 1007.7 |
| 20260509160541 | 71 | 36 | 0.0 | 4.3 | 0.00 | 0.00 | 0.00 | 32 | 1007.4 |
| 20260509160041 | 71 | 38 | 0.0 | 4.3 | 0.00 | 0.00 | 0.00 | 32 | 1007.5 |
| 20260509155541 | 70 | 57 | 0.0 | 0.0 | 0.00 | 0.00 | 0.00 | 34 | 1007.6 |
| 20260509155041 | 70 | 76 | 0.0 | 0.0 | 0.00 | 0.00 | 0.00 | 33 | 1007.6 |
| 20260509154541 | 70 | 75 | 0.0 | 0.0 | 0.00 | 0.00 | 0.00 | 32 | 1007.6 |
| 20260509154042 | 70 | 75 | 0.0 | 0.0 | 0.00 | 0.00 | 0.00 | 34 | 1007.7 |
| 20260509153541 | 70 | 75 | 0.0 | 0.0 | 0.00 | 0.00 | 0.00 | 35 | 1007.5 |
| 20260509152541 | 69 | 75 | 0.0 | 0.0 | 0.00 | 0.00 | 0.00 | 36 | 1007.6 |
| 20260509152041 | 68 | 76 | 0.0 | 0.0 | 0.00 | 0.00 | 0.00 | 35 | 1007.8 |
| 20260509151042 | 67 | 77 | 0.0 | 0.0 | 0.00 | 0.00 | 0.00 | 35 | 1008.0 |
| 20260509150541 | 68 | 59 | 0.0 | 0.0 | 0.00 | 0.00 | 0.00 | 35 | 1008.1 |
| 20260509150041 | 68 | 63 | 0.0 | 0.0 | 0.00 | 0.00 | 0.00 | 32 | 1008.0 |
| 20260509145541 | 68 | 35 | 0.0 | 0.0 | 0.00 | 0.00 | 0.00 | 33 | 1008.0 |
| 20260509145041 | 67 | 35 | 0.0 | 0.0 | 0.00 | 0.00 | 0.00 | 34 | 1008.0 |
| 20260509144541 | 67 | 33 | 0.0 | 0.0 | 0.00 | 0.00 | 0.00 | 33 | 1008.0 |
| 20260509143542 | 65 | 21 | 0.0 | 0.0 | 0.00 | 0.00 | 0.00 | 34 | 1008.1 |
| 20260509143042 | 65 | 22 | 0.0 | 0.0 | 0.00 | 0.00 | 0.00 | 35 | 1008.2 |
| 20260509142542 | 63 | 17 | 0.0 | 0.0 | 0.00 | 0.00 | 0.00 | 37 | 1008.4 |
| 20260509142041 | 63 | 17 | 0.0 | 0.0 | 0.00 | 0.00 | 0.00 | 37 | 1008.4 |
| 20260509141541 | 62 | 17 | 0.0 | 0.0 | 0.00 | 0.00 | 0.00 | 38 | 1008.5 |
| 20260509141041 | 62 | 355 | 0.0 | 0.0 | 0.00 | 0.00 | 0.00 | 41 | 1008.6 |
| 20260509140541 | 61 | 355 | 0.0 | 0.0 | 0.00 | 0.00 | 0.00 | 42 | 1008.5 |
| 20260509140042 | 61 | 355 | 0.0 | 0.0 | 0.00 | 0.00 | 0.00 | 40 | 1008.6 |
| 20260509135541 | 61 | 355 | 0.0 | 0.0 | 0.00 | 0.00 | 0.00 | 43 | 1008.6 |
| 20260509135042 | 60 | 355 | 0.0 | 0.0 | 0.00 | 0.00 | 0.00 | 49 | 1008.7 |
| 20260509134541 | 60 | 355 | 0.0 | 0.0 | 0.00 | 0.00 | 0.00 | 49 | 1008.7 |
| 20260509133542 | 59 | 355 | 0.0 | 0.0 | 0.00 | 0.00 | 0.00 | 52 | 1008.5 |
| 20260509133041 | 58 | 355 | 0.0 | 0.0 | 0.00 | 0.00 | 0.00 | 52 | 1008.4 |
| 20260509132041 | 0 | 0.0 | 0.0 | 0.00 | 0.00 | 0.00 | 1008.2 | ||
| 20260509131541 | 0 | 0.0 | 0.0 | 0.00 | 0.00 | 0.00 | 1008.3 | ||
| 20260509130041 | 0 | 0.0 | 0.0 | 0.00 | 0.00 | 0.00 | 1008.6 | ||
| 20260509125541 | 0 | 0.0 | 0.0 | 0.00 | 0.00 | 0.00 | 1008.6 | ||
| 20260509125041 | 0 | 0.0 | 0.0 | 0.00 | 0.00 | 0.00 | 1008.7 | ||
| 20260509124542 | 0 | 0.0 | 0.0 | 0.00 | 0.00 | 0.00 | 1008.7 | ||
| 20260509124041 | 0 | 0.0 | 0.0 | 0.00 | 0.00 | 0.00 | 1008.7 | ||
| 20260509123542 | 0 | 0.0 | 0.0 | 0.00 | 0.00 | 0.00 | 1008.9 | ||
| 20260509123041 | 0 | 0.0 | 0.0 | 0.00 | 0.00 | 0.00 | 1008.9 | ||
| 20260509122541 | 0 | 0.0 | 0.0 | 0.00 | 0.00 | 0.00 | 1008.8 | ||
| 20260509122041 | 0 | 0.0 | 0.0 | 0.00 | 0.00 | 0.00 | 1008.7 | ||
| 20260509121542 | 0 | 0.0 | 0.0 | 0.00 | 0.00 | 0.00 | 1008.6 | ||
| 20260509121041 | 0 | 0.0 | 0.0 | 0.00 | 0.00 | 0.00 | 1008.8 | ||
| 20260509120541 | 0 | 0.0 | 0.0 | 0.00 | 0.00 | 0.00 | 1008.7 | ||
| 20260509115541 | 54 | 355 | 0.0 | 0.0 | 0.00 | 0.00 | 0.00 | 56 | 1008.5 |
| 20260509115042 | 54 | 355 | 0.0 | 0.0 | 0.00 | 0.00 | 0.00 | 56 | 1008.5 |
| 20260509114042 | 54 | 355 | 0.0 | 0.0 | 0.00 | 0.00 | 0.00 | 55 | 1008.4 |
| 20260509113041 | 54 | 355 | 0.0 | 0.0 | 0.00 | 0.00 | 0.00 | 55 | 1008.3 |
| 20260509112041 | 54 | 355 | 0.0 | 0.0 | 0.00 | 0.00 | 0.00 | 54 | 1008.3 |
| 20260509111541 | 54 | 355 | 0.0 | 0.0 | 0.00 | 0.00 | 0.00 | 54 | 1008.3 |
| 20260509111041 | 54 | 355 | 0.0 | 0.0 | 0.00 | 0.00 | 0.00 | 54 | 1008.1 |
| 20260509110541 | 54 | 355 | 0.0 | 0.0 | 0.00 | 0.00 | 0.00 | 52 | 1008.2 |
| 20260509105541 | 55 | 355 | 0.0 | 0.0 | 0.00 | 0.00 | 0.00 | 52 | 1008.0 |
| 20260509105041 | 55 | 355 | 0.0 | 0.0 | 0.00 | 0.00 | 0.00 | 52 | 1008.0 |
| 20260509104541 | 55 | 355 | 0.0 | 0.0 | 0.00 | 0.00 | 0.00 | 51 | 1008.0 |
| 20260509103541 | 55 | 355 | 0.0 | 0.0 | 0.00 | 0.00 | 0.00 | 51 | 1008.0 |
| 20260509103042 | 55 | 355 | 0.0 | 0.0 | 0.00 | 0.00 | 0.00 | 50 | 1007.9 |
| 20260509102541 | 55 | 355 | 0.0 | 0.0 | 0.00 | 0.00 | 0.00 | 51 | 1008.0 |
| 20260509102041 | 55 | 355 | 0.0 | 0.0 | 0.00 | 0.00 | 0.00 | 51 | 1008.0 |
| 20260509101541 | 55 | 355 | 0.0 | 0.0 | 0.00 | 0.00 | 0.00 | 51 | 1008.0 |
| 20260509101042 | 55 | 355 | 0.0 | 0.0 | 0.00 | 0.00 | 0.00 | 50 | 1008.0 |
| 20260509100540 | 56 | 355 | 0.0 | 0.0 | 0.00 | 0.00 | 0.00 | 50 | 1008.0 |
| 20260509100041 | 56 | 355 | 0.0 | 0.0 | 0.00 | 0.00 | 0.00 | 48 | 1008.0 |
| 20260509095541 | 56 | 355 | 0.0 | 0.0 | 0.00 | 0.00 | 0.00 | 47 | 1008.0 |
| 20260509095042 | 56 | 355 | 0.0 | 0.0 | 0.00 | 0.00 | 0.00 | 48 | 1008.0 |
| 20260509094542 | 56 | 355 | 0.0 | 0.0 | 0.00 | 0.00 | 0.00 | 48 | 1008.1 |
| 20260509094041 | 56 | 355 | 0.0 | 0.0 | 0.00 | 0.00 | 0.00 | 46 | 1008.0 |
| 20260509093541 | 57 | 355 | 0.0 | 0.0 | 0.00 | 0.00 | 0.00 | 45 | 1007.9 |
| 20260509092541 | 57 | 355 | 0.0 | 0.0 | 0.00 | 0.00 | 0.00 | 44 | 1007.8 |
| 20260509092041 | 57 | 355 | 0.0 | 0.0 | 0.00 | 0.00 | 0.00 | 42 | 1007.9 |
| 20260509091541 | 57 | 355 | 0.0 | 0.0 | 0.00 | 0.00 | 0.00 | 43 | 1008.0 |
| 20260509091041 | 57 | 355 | 0.0 | 0.0 | 0.00 | 0.00 | 0.00 | 45 | 1008.0 |
| 20260509090541 | 57 | 355 | 0.0 | 0.0 | 0.00 | 0.00 | 0.00 | 45 | 1008.0 |
| 20260509090041 | 58 | 355 | 0.0 | 0.0 | 0.00 | 0.00 | 0.00 | 45 | 1008.1 |
| 20260509085541 | 58 | 355 | 0.0 | 0.0 | 0.00 | 0.00 | 0.00 | 44 | 1008.1 |
| 20260509085040 | 58 | 355 | 0.0 | 0.0 | 0.00 | 0.00 | 0.00 | 44 | 1008.1 |
| 20260509084541 | 58 | 355 | 0.0 | 0.0 | 0.00 | 0.00 | 0.00 | 44 | 1008.1 |
| 20260509084041 | 58 | 355 | 0.0 | 0.0 | 0.00 | 0.00 | 0.00 | 45 | 1008.1 |
| 20260509083041 | 58 | 355 | 0.0 | 0.0 | 0.00 | 0.00 | 0.00 | 43 | 1008.3 |
| 20260509082541 | 58 | 355 | 0.0 | 0.0 | 0.00 | 0.00 | 0.00 | 42 | 1008.3 |
| 20260509082041 | 58 | 355 | 0.0 | 0.0 | 0.00 | 0.00 | 0.00 | 41 | 1008.4 |
| 20260509081541 | 57 | 355 | 0.0 | 0.0 | 0.00 | 0.00 | 0.00 | 42 | 1008.2 |
| 20260509081042 | 57 | 355 | 0.0 | 0.0 | 0.00 | 0.00 | 0.00 | 44 | 1008.3 |
| 20260509080541 | 56 | 355 | 0.0 | 0.0 | 0.00 | 0.00 | 0.00 | 43 | 1008.4 |
| 20260509075542 | 56 | 355 | 0.0 | 0.0 | 0.00 | 0.00 | 0.00 | 48 | 1008.6 |
| 20260509075041 | 56 | 355 | 0.0 | 0.0 | 0.00 | 0.00 | 0.00 | 46 | 1008.5 |
| 20260509074542 | 56 | 355 | 0.0 | 0.0 | 0.00 | 0.00 | 0.00 | 47 | 1008.5 |
| 20260509074041 | 55 | 355 | 0.0 | 0.0 | 0.00 | 0.00 | 0.00 | 47 | 1008.6 |
| 20260509073541 | 55 | 355 | 0.0 | 0.0 | 0.00 | 0.00 | 0.00 | 49 | 1008.6 |
| 20260509073041 | 55 | 355 | 0.0 | 0.0 | 0.00 | 0.00 | 0.00 | 51 | 1008.6 |
| 20260509072541 | 55 | 355 | 0.0 | 0.0 | 0.00 | 0.00 | 0.00 | 52 | 1008.6 |
| 20260509072041 | 55 | 355 | 0.0 | 0.0 | 0.00 | 0.00 | 0.00 | 53 | 1008.6 |
| 20260509071541 | 55 | 355 | 0.0 | 0.0 | 0.00 | 0.00 | 0.00 | 54 | 1008.6 |
| 20260509071042 | 55 | 355 | 0.0 | 0.0 | 0.00 | 0.00 | 0.00 | 53 | 1008.6 |
| 20260509070541 | 54 | 355 | 0.0 | 0.0 | 0.00 | 0.00 | 0.00 | 53 | 1008.6 |
| 20260509065541 | 54 | 355 | 0.0 | 0.0 | 0.00 | 0.00 | 0.00 | 54 | 1008.8 |
| 20260509065041 | 54 | 355 | 0.0 | 0.0 | 0.00 | 0.00 | 0.00 | 54 | 1008.9 |
| 20260509064041 | 54 | 355 | 0.0 | 0.0 | 0.00 | 0.00 | 0.00 | 52 | 1009.0 |
| 20260509063541 | 54 | 355 | 0.0 | 0.0 | 0.00 | 0.00 | 0.00 | 53 | 1009.0 |
| 20260509063041 | 54 | 355 | 0.0 | 0.0 | 0.00 | 0.00 | 0.00 | 54 | 1009.1 |
| 20260509062541 | 54 | 355 | 0.0 | 0.0 | 0.00 | 0.00 | 0.00 | 54 | 1009.1 |
| 20260509062042 | 54 | 355 | 0.0 | 0.0 | 0.00 | 0.00 | 0.00 | 55 | 1009.2 |
| 20260509061541 | 53 | 355 | 0.0 | 0.0 | 0.00 | 0.00 | 0.00 | 54 | 1009.1 |
| 20260509055542 | 54 | 355 | 0.0 | 0.0 | 0.00 | 0.00 | 0.00 | 53 | 1009.4 |
| 20260509055041 | 54 | 355 | 0.0 | 0.0 | 0.00 | 0.00 | 0.00 | 53 | 1009.3 |
| 20260509054541 | 54 | 355 | 0.0 | 0.0 | 0.00 | 0.00 | 0.00 | 55 | 1009.4 |
| 20260509054040 | 54 | 355 | 0.0 | 0.0 | 0.00 | 0.00 | 0.00 | 52 | 1009.3 |
| 20260509053540 | 54 | 355 | 0.0 | 0.0 | 0.00 | 0.00 | 0.00 | 51 | 1009.3 |
| 20260509052541 | 54 | 355 | 0.0 | 0.0 | 0.00 | 0.00 | 0.00 | 53 | 1009.4 |
| 20260509052041 | 54 | 355 | 0.0 | 0.0 | 0.00 | 0.00 | 0.00 | 53 | 1009.4 |
| 20260509051541 | 54 | 355 | 0.0 | 0.0 | 0.00 | 0.00 | 0.00 | 53 | 1009.4 |
| 20260509051042 | 54 | 355 | 0.0 | 0.0 | 0.00 | 0.00 | 0.00 | 53 | 1009.4 |
| 20260509050540 | 54 | 355 | 0.0 | 0.0 | 0.00 | 0.00 | 0.00 | 51 | 1009.5 |
| 20260509050041 | 55 | 355 | 0.0 | 0.0 | 0.00 | 0.00 | 0.00 | 50 | 1009.2 |
| 20260509045541 | 55 | 355 | 0.0 | 0.0 | 0.00 | 0.00 | 0.00 | 49 | 1009.3 |
| 20260509045041 | 55 | 355 | 0.0 | 0.0 | 0.00 | 0.00 | 0.00 | 50 | 1009.3 |
| 20260509044540 | 55 | 355 | 0.0 | 0.0 | 0.00 | 0.00 | 0.00 | 50 | 1009.4 |
| 20260509044041 | 55 | 355 | 0.0 | 0.0 | 0.00 | 0.00 | 0.00 | 50 | 1009.4 |
| 20260509042540 | 56 | 355 | 0.0 | 0.0 | 0.00 | 0.00 | 0.00 | 50 | 1009.4 |
| 20260509042041 | 56 | 355 | 0.0 | 0.0 | 0.00 | 0.00 | 0.00 | 49 | 1009.4 |
| 20260509041540 | 56 | 355 | 0.0 | 0.0 | 0.00 | 0.00 | 0.00 | 48 | 1009.3 |
| 20260509041040 | 56 | 355 | 0.0 | 0.0 | 0.00 | 0.00 | 0.00 | 48 | 1009.3 |
| 20260509040540 | 56 | 355 | 0.0 | 0.0 | 0.00 | 0.00 | 0.00 | 47 | 1009.3 |
| 20260509040040 | 57 | 355 | 0.0 | 0.0 | 0.00 | 0.00 | 0.00 | 46 | 1009.4 |
| 20260509035541 | 57 | 355 | 0.0 | 0.0 | 0.00 | 0.00 | 0.00 | 46 | 1009.5 |
| 20260509035041 | 57 | 355 | 0.0 | 0.0 | 0.00 | 0.00 | 0.00 | 47 | 1009.5 |
| 20260509034042 | 57 | 355 | 0.0 | 0.0 | 0.00 | 0.00 | 0.00 | 46 | 1009.4 |
| 20260509033540 | 57 | 355 | 0.0 | 0.0 | 0.00 | 0.00 | 0.00 | 43 | 1009.4 |
| 20260509033041 | 58 | 355 | 0.0 | 0.0 | 0.00 | 0.00 | 0.00 | 41 | 1009.3 |
| 20260509032541 | 58 | 355 | 0.0 | 0.0 | 0.00 | 0.00 | 0.00 | 43 | 1009.3 |
| 20260509031541 | 58 | 355 | 0.0 | 0.0 | 0.00 | 0.00 | 0.00 | 42 | 1009.4 |
| 20260509031040 | 59 | 355 | 0.0 | 0.0 | 0.00 | 0.00 | 0.00 | 39 | 1009.5 |
| 20260509030540 | 59 | 355 | 0.0 | 0.0 | 0.00 | 0.00 | 0.00 | 42 | 1009.5 |
| 20260509030041 | 59 | 355 | 0.0 | 0.0 | 0.00 | 0.00 | 0.00 | 43 | 1009.5 |
| 20260509025541 | 60 | 355 | 0.0 | 0.0 | 0.00 | 0.00 | 0.00 | 37 | 1009.6 |
| 20260509023541 | 61 | 355 | 0.0 | 0.0 | 0.00 | 0.00 | 0.00 | 35 | 1009.7 |
| 20260509022541 | 61 | 355 | 0.0 | 0.0 | 0.00 | 0.00 | 0.00 | 35 | 1009.5 |
| 20260509021042 | 63 | 355 | 0.0 | 0.0 | 0.00 | 0.00 | 0.00 | 32 | 1009.6 |
| 20260509020541 | 63 | 343 | 0.0 | 0.0 | 0.00 | 0.00 | 0.00 | 32 | 1009.5 |
| 20260509015541 | 63 | 342 | 0.0 | 0.9 | 0.00 | 0.00 | 0.00 | 31 | 1009.4 |
| 20260509015041 | 63 | 342 | 0.0 | 0.9 | 0.00 | 0.00 | 0.00 | 30 | 1009.5 |
| 20260509014541 | 64 | 325 | 0.0 | 2.6 | 0.00 | 0.00 | 0.00 | 32 | 1009.6 |
| 20260509014042 | 64 | 325 | 0.0 | 2.6 | 0.00 | 0.00 | 0.00 | 30 | 1009.5 |
| 20260509013542 | 64 | 343 | 0.0 | 0.0 | 0.00 | 0.00 | 0.00 | 30 | 1009.4 |
| 20260509013041 | 64 | 344 | 0.0 | 2.6 | 0.00 | 0.00 | 0.00 | 30 | 1009.4 |
| 20260509012541 | 64 | 346 | 0.0 | 3.5 | 0.00 | 0.00 | 0.00 | 30 | 1009.5 |
| 20260509012041 | 64 | 5 | 0.0 | 3.5 | 0.00 | 0.00 | 0.00 | 29 | 1009.4 |
| 20260509011541 | 64 | 248 | 0.0 | 0.0 | 0.00 | 0.00 | 0.00 | 29 | 1009.4 |
| 20260509011041 | 64 | 242 | 0.0 | 1.7 | 0.00 | 0.00 | 0.00 | 29 | 1009.4 |
| 20260509010041 | 65 | 113 | 0.0 | 3.5 | 0.00 | 0.00 | 0.00 | 29 | 1009.3 |
| 20260509005041 | 65 | 198 | 0.0 | 0.9 | 0.00 | 0.00 | 0.00 | 29 | 1009.2 |
| 20260509004541 | 65 | 151 | 0.0 | 0.9 | 0.00 | 0.00 | 0.00 | 29 | 1009.2 |
| 20260509004041 | 65 | 266 | 0.0 | 1.7 | 0.00 | 0.00 | 0.00 | 30 | 1009.2 |
| 20260509003541 | 65 | 266 | 0.0 | 2.6 | 0.00 | 0.00 | 0.00 | 29 | 1009.2 |
| 20260509003041 | 65 | 254 | 0.0 | 3.5 | 0.00 | 0.00 | 0.00 | 29 | 1009.2 |
| 20260509002541 | 65 | 263 | 0.0 | 3.5 | 0.00 | 0.00 | 0.00 | 29 | 1009.2 |
| 20260509002040 | 65 | 226 | 0.0 | 0.9 | 0.00 | 0.00 | 0.00 | 29 | 1009.1 |
| 20260509001541 | 65 | 205 | 0.0 | 0.0 | 0.00 | 0.00 | 0.00 | 28 | 1009.1 |
| 20260509000041 | 66 | 260 | 0.9 | 6.1 | 0.00 | 0.00 | 0.00 | 27 | 1009.0 |
| 20260508235540 | 66 | 261 | 0.0 | 6.1 | 0.00 | 0.00 | 0.00 | 27 | 1009.0 |
| 20260508235041 | 66 | 219 | 0.0 | 0.0 | 0.00 | 0.00 | 0.00 | 26 | 1008.8 |
| 20260508234041 | 65 | 107 | 0.0 | 0.0 | 0.00 | 0.00 | 0.00 | 28 | 1008.9 |
| 20260508233541 | 65 | 64 | 0.0 | 0.0 | 0.00 | 0.00 | 0.00 | 31 | 1008.9 |
| 20260508233041 | 65 | 66 | 0.0 | 0.0 | 0.00 | 0.00 | 0.00 | 29 | 1008.9 |
| 20260508232041 | 66 | 66 | 0.0 | 0.0 | 0.00 | 0.00 | 0.00 | 30 | 1008.8 |
| 20260508231541 | 66 | 66 | 0.0 | 0.0 | 0.00 | 0.00 | 0.00 | 32 | 1008.9 |
| 20260508231041 | 66 | 66 | 0.0 | 0.0 | 0.00 | 0.00 | 0.00 | 29 | 1008.8 |
| 20260508230541 | 66 | 66 | 0.0 | 0.0 | 0.00 | 0.00 | 0.00 | 31 | 1008.9 |
| 20260508225541 | 67 | 66 | 0.0 | 0.0 | 0.00 | 0.00 | 0.00 | 30 | 1008.8 |
| 20260508225042 | 67 | 66 | 0.0 | 0.0 | 0.00 | 0.00 | 0.00 | 28 | 1008.8 |
| 20260508224541 | 67 | 66 | 0.0 | 0.0 | 0.00 | 0.00 | 0.00 | 28 | 1008.9 |